sat.trackr.live / text

‹ back to catalog

STARLINK-5643

NORAD 55431 · 2023-014AS

PAYLOAD ACTIVE UNKNOWN

§ Identity

Operator
Country
US
Launch date
2023-01-31
Launch site
AFWTR
Launch vehicle
Mass (kg)
RCS (m²)

Purposes: comms

External: N2YO · Heavens-Above · Gunter

§ Orbital elements

Epoch: 2026-05-25T00:47:12.496128Z

Period
96.11 min
Inclination
69.9994°
Eccentricity
0.0003199
Mean motion
14.98330865 rev/d
Perigee alt
569.8 km
Apogee alt
574.3 km
Semi-major
6,950.2 km
B*
3.6652e-5
RAAN
252.1257°
Arg perigee
268.7440°
Mean anomaly
91.3352°
Rev number
18,299

§ Raw data

STARLINK-56431 55431U 23014AS  26145.03278352  .00000344  00000+0  36652-4 0  99922 55431  69.9994 252.1257 0003199 268.7440  91.3352 14.98330865182992

JSON: /api/v1/satellites/55431 · /tle

For live sub-satellite position, see the globe view (requires WebGL).

§ Visibility from observer

Set your observer location to see the next 7 days of passes ≥ 10°. The values pass through the URL so the page stays shareable.

No JS? Fill the form by hand. The geolocation button needs JavaScript.